Location: Zilina
(0.0000°N, 18.7333°E)
Time: 11:06:39
(UTC+02:00)

Cosmos 2278 Rocket - Pass Details

Date: 19 February 2019
Orbit: 839 x 847 km, 71.0° (Epoch: 13 October)

Event Time Altitude Azimuth Distance (km) Brightness Sun altitude
Rises 18:55:02 0° 200° (SSW) 3,395 5.8 -13.8°
Reaches altitude 10° 18:57:29 10° 203° (SSW) 2,459 5.1 -14.4°
Maximum altitude 19:03:06 69° 285° (WNW) 901 2.5 -15.7°
Drops below altitude 10° 19:08:42 10° 8° (N) 2,455 4.4 -17.1°
Sets 19:11:09 0° 11° (N) 3,389 5.1 -17.7°
